Location: Newark
(44.8672°N, 13.8458°E)
Time: 10:23:16
(UTC+00:00)

ISS - Visible Passes

Search period start: 16 July 2019 00:00
Search period end: 26 July 2019 00:00
Orbit: 409 x 418 km, 51.6° (Epoch: 16 July)

Date Brightness Start Highest point End Pass type
(mag) Time Alt. Az. Time Alt. Az. Time Alt. Az.
16 Jul -1.8 01:10:11 10° NW 01:13:12 31° NNE 01:16:13 10° E visible
16 Jul -3.9 02:46:48 10° WNW 02:50:06 68° SSW 02:53:23 10° SE visible
16 Jul -2.0 19:31:23 10° SSE 19:33:10 14° SE 19:34:58 10° E visible
16 Jul -3.9 21:06:05 10° WSW 21:09:25 89° WNW 21:12:46 10° ENE visible
16 Jul -1.7 22:43:28 10° WNW 22:46:25 28° NNW 22:49:22 10° NE visible
17 Jul -1.5 00:20:52 10° NW 00:23:45 27° N 00:26:38 10° ENE visible
17 Jul -3.6 01:57:29 10° WNW 02:00:48 75° NNE 02:04:06 10° ESE visible
17 Jul -3.8 20:16:53 10° SW 20:20:09 55° SE 20:23:26 10° ENE visible
17 Jul -2.0 21:53:53 10° W 21:56:58 34° NNW 22:00:03 10° NE visible
17 Jul -1.4 23:31:27 10° NW 23:34:16 25° N 23:37:05 10° ENE visible
18 Jul -2.9 01:08:12 10° NW 01:11:28 50° NNE 01:14:42 10° E visible
18 Jul -2.9 02:45:07 10° WNW 02:48:00 27° SW 02:50:52 10° SSE visible
18 Jul -3.1 19:27:53 10° SSW 19:30:55 33° SE 19:33:58 10° ENE visible
18 Jul -2.6 21:04:19 10° W 21:07:33 45° NNW 21:10:46 10° NE visible
18 Jul -1.4 22:41:57 10° WNW 22:44:46 24° N 22:47:34 10° NE visible
19 Jul -2.2 00:18:55 10° NW 00:22:03 37° NNE 00:25:10 10° E visible
19 Jul -3.6 01:55:35 10° WNW 01:58:48 46° SW 02:01:58 10° SE visible
19 Jul -3.4 20:14:50 10° WSW 20:18:09 65° NNW 20:21:29 10° ENE visible
19 Jul -1.5 21:52:23 10° WNW 21:55:15 26° N 21:58:07 10° NE visible
19 Jul -1.8 23:29:35 10° NW 23:32:35 30° NNE 23:35:34 10° ENE visible
20 Jul -3.6 01:06:12 10° WNW 01:11:54 17° SE 01:12:49 10° SE visible
20 Jul -1.8 02:45:51 11° SW 02:45:51 11° SW 02:46:49 10° SSW visible
20 Jul -3.8 19:25:27 10° SW 19:28:48 80° SSE 19:32:09 10° ENE visible
20 Jul -1.7 21:02:45 10° WNW 21:05:45 29° NNW 21:08:44 10° NE visible
20 Jul -1.5 22:40:12 10° NW 22:43:05 26° N 22:45:11 15° ENE visible
21 Jul -1.5 00:16:52 10° WNW 00:17:54 19° NW 00:17:54 19° NW visible
21 Jul -2.1 20:13:07 10° W 20:16:16 36° NNW 20:19:24 10° NE visible
21 Jul -1.4 21:50:44 10° NW 21:53:32 24° N 21:56:21 10° ENE visible
21 Jul -1.8 23:27:32 10° NW 23:29:16 26° NW 23:29:16 26° NW visible
22 Jul -2.7 19:23:32 10° W 19:26:48 49° NNW 19:30:04 10° NE visible
22 Jul -1.4 21:01:10 10° WNW 21:03:59 25° N 21:06:49 10° NE visible
22 Jul -2.1 22:38:12 10° NW 22:41:00 34° N 22:41:00 34° N visible
23 Jul -1.6 20:11:32 10° WNW 20:14:27 27° N 20:17:20 10° NE visible
23 Jul -1.8 21:48:49 10° NW 21:51:47 28° NNE 21:52:55 23° NE visible
23 Jul -0.9 23:25:25 10° WNW 23:25:42 12° WNW 23:25:42 12° WNW visible
24 Jul -1.8 19:21:51 10° W 19:24:54 31° NNW 19:27:56 10° NE visible
24 Jul -1.6 20:59:22 10° NW 21:02:13 25° N 21:04:54 11° ENE visible
24 Jul -1.8 22:36:02 10° NW 22:37:42 26° NW 22:37:42 26° NW visible
25 Jul -1.5 20:09:49 10° WNW 20:12:38 24° N 20:15:27 10° ENE visible
25 Jul -2.6 21:46:40 10° NW 21:49:45 42° NNE 21:49:45 42° NNE visible
